TimeCOT,TemperatureF,Dew PointF,Humidity,Sea Level PressureIn,VisibilityMPH,Wind Direction,Wind SpeedMPH,Gust SpeedMPH,PrecipitationIn,Events,Conditions,WindDirDegrees,DateUTC
6:00 AM,77.0,73.4,89,29.86,6.2,Calm,Calm,-,N/A,,Mostly Cloudy,0,2012-11-17 11:00:00
7:00 AM,78,74,84,29.87,6,SSE,4.5,,,,Haze,150,2012-11-17 12:00:00
7:00 AM,78.8,73.4,83,29.86,6.2,SSE,4.6,-,N/A,,Scattered Clouds,150,2012-11-17 12:00:00
8:00 AM,80.6,73.4,79,29.86,6.2,SSW,6.9,-,N/A,,Scattered Clouds,210,2012-11-17 13:00:00
9:00 AM,84.2,75.2,74,29.89,6.2,SSW,4.6,-,N/A,,Scattered Clouds,200,2012-11-17 14:00:00
10:00 AM,86,74,59,29.83,6,West,4.5,,,,Haze,260,2012-11-17 15:00:00
10:00 AM,86.0,77.0,74,29.86,6.2,WSW,4.6,-,N/A,,Partly Cloudy,250,2012-11-17 15:00:00
11:00 AM,86.0,77.0,74,29.86,6.2,West,4.6,-,N/A,,Partly Cloudy,260,2012-11-17 16:00:00
12:00 PM,87.8,77.0,70,29.83,6.2,NW,6.9,-,N/A,,Partly Cloudy,310,2012-11-17 17:00:00
1:00 PM,89,78,62,29.83,6,NW,6.7,,,,Haze,320,2012-11-17 18:00:00
1:00 PM,89.6,77.0,66,29.83,6.2,NW,6.9,-,N/A,,Partly Cloudy,320,2012-11-17 18:00:00
2:00 PM,91.4,77.0,63,29.80,6.2,NNW,6.9,-,N/A,,Scattered Clouds,340,2012-11-17 19:00:00
3:00 PM,86.0,77.0,74,29.77,6.2,North,6.9,-,N/A,,Mostly Cloudy,350,2012-11-17 20:00:00
4:00 PM,87,77,65,29.78,6,North,8.9,,,Thunderstorm,Thunderstorm,0,2012-11-17 21:00:00
4:00 PM,87.8,77.0,70,29.77,6.2,North,9.2,-,N/A,Thunderstorm,Thunderstorm,360,2012-11-17 21:00:00
5:00 PM,84.2,75.2,74,29.80,6.2,North,9.2,-,N/A,,Mostly Cloudy,360,2012-11-17 22:00:00
6:00 PM,84.2,75.2,74,29.83,6.2,North,9.2,-,N/A,,Mostly Cloudy,10,2012-11-17 23:00:00
7:00 PM,82,77,82,29.85,6,Calm,Calm,,,Rain,Light Drizzle,,2012-11-18 00:00:00
7:00 PM,82.4,75.2,79,29.83,6.2,Calm,Calm,-,N/A,,Light Drizzle,0,2012-11-18 00:00:00
8:00 PM,78.8,75.2,89,29.86,6.2,Calm,Calm,-,N/A,,Light Drizzle,0,2012-11-18 01:00:00
9:00 PM,77.0,75.2,94,29.89,5.6,SSE,4.6,-,N/A,Rain-Thunderstorm,Light Thunderstorms and Rain,150,2012-11-18 02:00:00
10:00 PM,78,75,88,29.90,6,Calm,Calm,,,Rain-Thunderstorm,Thunderstorms and Rain,,2012-11-18 03:00:00
10:00 PM,77.0,75.2,94,29.89,6.2,Calm,Calm,-,N/A,Rain-Thunderstorm,Light Thunderstorms and Rain,0,2012-11-18 03:00:00